When you browse on this site, cookies collect data to enhance your experience and personalize the content and advertising you see.
Visit our Privacy Policy to learn more. By continuing to use the site, you agree to this use of cookies and data.
  • In Österreich
  • Länderverzeichnis
  • Für 7 Tage
  • Wassertemperatur
  • Wetterkarte
  • News
  • Widgets
  • user-avatar
    Anmelden

    Stündliche Wetter Sasaima

    Heute, 12 Dezember, Donnerstag

    Zeit Temperatur Niederschläge Wind Luftdruck Luftfeuchtigkeit
    00:00 +13°C° 0.1 mm 1 m/S 599 mmHg 93%
    01:00 +13°C° 0.1 mm 1 m/S 599 mmHg 93%
    02:00 +13°C° 0.2 mm 1 m/S 599 mmHg 93%
    03:00 +13°C° 0.2 mm 1 m/S 599 mmHg 93%
    04:00 +13°C° 0.2 mm 1 m/S 598 mmHg 93%
    05:00 +13°C° 0 mm 1 m/S 599 mmHg 93%
    06:00 +14°C° 0 mm 1 m/S 599 mmHg 92%
    07:00 +14°C° 0 mm 1 m/S 600 mmHg 92%
    08:00 +15°C° 0.1 mm 1 m/S 600 mmHg 89%
    09:00 +16°C° 0.1 mm 1 m/S 601 mmHg 86%
    10:00 +18°C° 0.1 mm 1 m/S 602 mmHg 84%
    11:00 +20°C° 0.1 mm 1 m/S 601 mmHg 77%
    12:00 +20°C° 0.1 mm 2 m/S 601 mmHg 70%
    13:00 +23°C° 0.1 mm 2 m/S 601 mmHg 63%
    14:00 +21°C° 0.6 mm 2 m/S 600 mmHg 71%
    15:00 +21°C° 0.6 mm 1 m/S 600 mmHg 79%
    16:00 +20°C° 0.6 mm 1 m/S 599 mmHg 86%
    17:00 +18°C° 0.6 mm 1 m/S 599 mmHg 89%
    18:00 +16°C° 0.6 mm 1 m/S 598 mmHg 92%
    19:00 +15°C° 0.6 mm 1 m/S 598 mmHg 95%
    20:00 +14°C° 0.2 mm 1 m/S 599 mmHg 94%
    21:00 +14°C° 0.2 mm 1 m/S 599 mmHg 93%
    22:00 +13°C° 0.2 mm 1 m/S 600 mmHg 92%
    23:00 +13°C° 0.1 mm 1 m/S 599 mmHg 91%

    Morgen, 13 Dezember, Freitag

    Zeit Temperatur Niederschläge Wind Luftdruck Luftfeuchtigkeit
    00:00 +13°C° 0.1 mm 1 m/S 599 mmHg 90%
    01:00 +13°C° 0.1 mm 1 m/S 599 mmHg 88%
    02:00 +13°C° 0 mm 1 m/S 598 mmHg 88%
    03:00 +13°C° 0 mm 1 m/S 598 mmHg 87%
    04:00 +13°C° 0 mm 1 m/S 598 mmHg 86%
    05:00 +13°C° 0.1 mm 1 m/S 599 mmHg 85%
    06:00 +14°C° 0.1 mm 1 m/S 599 mmHg 84%
    07:00 +14°C° 0.1 mm 1 m/S 600 mmHg 83%
    08:00 +16°C° 0 mm 1 m/S 601 mmHg 77%
    09:00 +19°C° 0 mm 1 m/S 602 mmHg 70%
    10:00 +21°C° 0 mm 1 m/S 603 mmHg 64%
    11:00 +20°C° 0.2 mm 2 m/S 602 mmHg 67%
    12:00 +20°C° 0.2 mm 2 m/S 601 mmHg 69%
    13:00 +21°C° 0.2 mm 2 m/S 600 mmHg 72%
    14:00 +20°C° 0.7 mm 2 m/S 600 mmHg 77%
    15:00 +20°C° 0.7 mm 1 m/S 599 mmHg 82%
    16:00 +20°C° 0.7 mm 1 m/S 599 mmHg 87%
    17:00 +18°C° 0.8 mm 1 m/S 599 mmHg 89%
    18:00 +16°C° 0.8 mm 1 m/S 599 mmHg 92%
    19:00 +15°C° 0.8 mm 1 m/S 599 mmHg 94%
    20:00 +15°C° 0.7 mm 1 m/S 599 mmHg 94%
    21:00 +15°C° 0.7 mm 1 m/S 600 mmHg 94%
    22:00 +15°C° 0.7 mm 1 m/S 600 mmHg 94%
    23:00 +14°C° 1 mm 1 m/S 600 mmHg 94%

    übermorgen, 14 Dezember, Samstag

    Zeit Temperatur Niederschläge Wind Luftdruck Luftfeuchtigkeit
    00:00 +14°C° 1 mm 1 m/S 599 mmHg 95%
    01:00 +14°C° 1 mm 1 m/S 599 mmHg 96%
    02:00 +14°C° 1.8 mm 1 m/S 599 mmHg 97%
    03:00 +14°C° 1.8 mm 1 m/S 599 mmHg 97%
    04:00 +14°C° 1.8 mm 1 m/S 599 mmHg 98%
    05:00 +14°C° 0.6 mm 1 m/S 599 mmHg 97%
    06:00 +13°C° 0.6 mm 0 m/S 600 mmHg 97%
    07:00 +13°C° 0.6 mm 0 m/S 600 mmHg 96%
    08:00 +14°C° 0.3 mm 0 m/S 601 mmHg 91%
    09:00 +18°C° 0.3 mm 1 m/S 602 mmHg 85%
    10:00 +19°C° 0.3 mm 1 m/S 602 mmHg 79%
    11:00 +20°C° 0.3 mm 1 m/S 602 mmHg 77%
    12:00 +20°C° 0.3 mm 1 m/S 602 mmHg 75%
    13:00 +21°C° 0.3 mm 1 m/S 601 mmHg 73%
    14:00 +20°C° 0.5 mm 1 m/S 601 mmHg 77%
    15:00 +20°C° 0.5 mm 1 m/S 600 mmHg 82%
    16:00 +19°C° 0.5 mm 1 m/S 599 mmHg 86%
    17:00 +18°C° 0.6 mm 1 m/S 599 mmHg 89%
    18:00 +16°C° 0.6 mm 1 m/S 599 mmHg 93%
    19:00 +14°C° 0.6 mm 0 m/S 599 mmHg 96%
    20:00 +15°C° 0.7 mm 1 m/S 600 mmHg 95%
    21:00 +14°C° 0.7 mm 1 m/S 600 mmHg 95%
    22:00 +14°C° 0.7 mm 1 m/S 601 mmHg 95%
    23:00 +14°C° 0.5 mm 1 m/S 600 mmHg 95%

    15 Dezember, Sonntag

    Zeit Temperatur Niederschläge Wind Luftdruck Luftfeuchtigkeit
    00:00 +14°C° 0.5 mm 1 m/S 600 mmHg 95%
    01:00 +13°C° 0.5 mm 0 m/S 600 mmHg 95%
    02:00 +13°C° 0.3 mm 0 m/S 600 mmHg 95%
    03:00 +12°C° 0.3 mm 0 m/S 599 mmHg 95%
    04:00 +12°C° 0.3 mm 0 m/S 599 mmHg 95%
    05:00 +13°C° 0.1 mm 0 m/S 600 mmHg 95%
    06:00 +13°C° 0.1 mm 0 m/S 600 mmHg 94%
    07:00 +13°C° 0.1 mm 0 m/S 601 mmHg 94%
    08:00 +16°C° 0.2 mm 1 m/S 602 mmHg 90%
    09:00 +18°C° 0.2 mm 1 m/S 602 mmHg 86%
    10:00 +20°C° 0.2 mm 1 m/S 603 mmHg 82%
    11:00 +19°C° 0.9 mm 1 m/S 602 mmHg 84%
    12:00 +19°C° 0.9 mm 1 m/S 601 mmHg 85%
    13:00 +19°C° 0.9 mm 1 m/S 601 mmHg 87%
    14:00 +19°C° 1.2 mm 1 m/S 600 mmHg 88%
    15:00 +19°C° 1.2 mm 1 m/S 600 mmHg 88%
    16:00 +19°C° 1.2 mm 1 m/S 600 mmHg 89%
    17:00 +18°C° 0.7 mm 1 m/S 599 mmHg 91%
    18:00 +16°C° 0.7 mm 1 m/S 599 mmHg 94%
    19:00 +14°C° 0.7 mm 0 m/S 599 mmHg 96%
    20:00 +15°C° 1.2 mm 1 m/S 600 mmHg 96%
    21:00 +14°C° 1.2 mm 1 m/S 600 mmHg 95%
    22:00 +14°C° 1.2 mm 1 m/S 601 mmHg 95%
    23:00 +14°C° 0.4 mm 1 m/S 600 mmHg 95%

    16 Dezember, Montag

    Zeit Temperatur Niederschläge Wind Luftdruck Luftfeuchtigkeit
    00:00 +14°C° 0.4 mm 1 m/S 600 mmHg 95%
    01:00 +14°C° 0.4 mm 1 m/S 600 mmHg 94%
    02:00 +14°C° 0.2 mm 1 m/S 599 mmHg 95%
    03:00 +14°C° 0.2 mm 1 m/S 599 mmHg 95%
    04:00 +13°C° 0.2 mm 0 m/S 599 mmHg 95%
    05:00 +13°C° 0.1 mm 0 m/S 600 mmHg 94%
    06:00 +13°C° 0.1 mm 0 m/S 600 mmHg 94%
    07:00 +14°C° 0.1 mm 0 m/S 601 mmHg 93%
    08:00 +15°C° 0.1 mm 0 m/S 601 mmHg 87%
    09:00 +19°C° 0.1 mm 1 m/S 602 mmHg 82%
    10:00 +20°C° 0.1 mm 1 m/S 603 mmHg 76%
    11:00 +20°C° 0.7 mm 1 m/S 602 mmHg 79%
    12:00 +20°C° 0.7 mm 1 m/S 601 mmHg 81%
    13:00 +20°C° 0.7 mm 1 m/S 600 mmHg 84%
    14:00 +20°C° 0.9 mm 1 m/S 600 mmHg 85%
    15:00 +20°C° 0.9 mm 1 m/S 599 mmHg 86%
    16:00 +19°C° 0.9 mm 1 m/S 599 mmHg 87%
    17:00 +18°C° 0.9 mm 1 m/S 599 mmHg 90%
    18:00 +16°C° 0.9 mm 1 m/S 599 mmHg 92%
    19:00 +15°C° 0.9 mm 1 m/S 599 mmHg 95%
    20:00 +15°C° 0.8 mm 1 m/S 599 mmHg 95%
    21:00 +15°C° 0.8 mm 1 m/S 599 mmHg 94%
    22:00 +14°C° 0.8 mm 1 m/S 600 mmHg 94%
    23:00 +14°C° 0.6 mm 1 m/S 599 mmHg 94%

    17 Dezember, Dienstag

    Zeit Temperatur Niederschläge Wind Luftdruck Luftfeuchtigkeit
    00:00 +14°C° 0.6 mm 1 m/S 599 mmHg 94%
    01:00 +14°C° 0.6 mm 1 m/S 599 mmHg 94%
    02:00 +14°C° 0.3 mm 1 m/S 599 mmHg 93%
    03:00 +14°C° 0.3 mm 1 m/S 598 mmHg 93%
    04:00 +14°C° 0.3 mm 1 m/S 598 mmHg 93%
    05:00 +14°C° 0.1 mm 1 m/S 599 mmHg 93%
    06:00 +14°C° 0.1 mm 1 m/S 599 mmHg 92%
    07:00 +14°C° 0.1 mm 1 m/S 599 mmHg 91%
    08:00 +16°C° 0 mm 1 m/S 600 mmHg 86%
    09:00 +19°C° 0 mm 1 m/S 601 mmHg 80%
    10:00 +20°C° 0 mm 1 m/S 601 mmHg 75%
    11:00 +21°C° 0.4 mm 1 m/S 601 mmHg 76%
    12:00 +21°C° 0.4 mm 1 m/S 600 mmHg 77%
    13:00 +20°C° 0.4 mm 2 m/S 600 mmHg 78%
    14:00 +21°C° 1 mm 1 m/S 599 mmHg 81%
    15:00 +20°C° 1 mm 1 m/S 598 mmHg 84%
    16:00 +20°C° 1 mm 1 m/S 598 mmHg 88%
    17:00 +19°C° 0.9 mm 1 m/S 598 mmHg 90%
    18:00 +18°C° 0.9 mm 1 m/S 598 mmHg 93%
    19:00 +16°C° 0.9 mm 1 m/S 598 mmHg 95%
    20:00 +15°C° 1.1 mm 1 m/S 598 mmHg 95%
    21:00 +15°C° 1.1 mm 1 m/S 599 mmHg 94%
    22:00 +14°C° 1.1 mm 1 m/S 599 mmHg 93%
    23:00 +14°C° 0.7 mm 1 m/S 599 mmHg 93%
    Mehr zeigen